{"data":{"norad_id":66141,"intl_designator":"2025-237AD","name":"STARLINK-35603","alt_names":[],"object_type":"PAYLOAD","status":"ACTIVE","operator":null,"country":"US","launch_date":"2025-10-22","launch_site_code":"AFWTR","launch_vehicle":null,"mission":null,"orbit_class":"UNKNOWN","rcs_meters":null,"size_class":null,"mass_kg":null,"dimensions":null,"purposes":["comms"],"wikipedia_slug":null,"has_3d_model":false,"image_url":null,"decayed_at":null,"tle_current":{"epoch":"2026-09-20T07:50:07.141056Z","epoch_age_seconds":115431,"freshness":"FRESH","line1":"1 66141U 25237AD  26263.32647154  .00018848  00000+0  56748-3 0  9999","line2":"2 66141  53.1581 212.4774 0001230  89.3957 270.7187 15.34405504 52456","mean_motion":15.34405504,"eccentricity":0.000123,"inclination_deg":53.1581,"raan_deg":212.4774,"arg_perigee_deg":89.3957,"mean_anomaly_deg":270.7187,"bstar":0.00056748,"rev_number":5245,"period_min":93.847421444077,"perigee_km":461.8454598707,"apogee_km":463.52830254548,"semimajor_km":6840.8238812081,"source":"CELESTRAK","updated_at":"2026-09-21T09:00:35.811943Z"}}}